Simultaneous Nadir Overpasses (SNOs) Predictions

Prediction of SNOs between AQUA and GOES-15 Satellite Orbit:

Table of predicted SNOs for the next 14.0 days since TLE Epoch: 7/20/2018
Index Date Time (AQUA) AQUA Lat,Lon GOES-15 Lat,Lon Distance(km) Time Diff (sec)
1 07/21/2018 10:26:31 -0.81,-132.77 -0.21,-135.50 310.53 80
2 07/21/2018 22:47:56 -0.29,-137.97 0.23,-135.52 278.22 80
3 07/23/2018 22:35:49 0.36,-135.04 0.23,-135.52 56.19 80
4 07/25/2018 22:23:41 0.96,-132.09 0.23,-135.52 389.96 80
5 07/26/2018 10:44:58 0.14,-137.25 -0.26,-135.50 199.98 80
6 07/28/2018 10:32:51 -0.52,-134.32 -0.26,-135.49 133.19 80
7 07/28/2018 22:54:16 -0.56,-139.52 0.28,-135.50 456.24 80
8 07/30/2018 10:20:43 -1.12,-131.37 -0.26,-135.47 465.98 80
9 07/30/2018 22:42:08 0.04,-136.57 0.28,-135.49 123.44 80
10 08/01/2018 22:30:00 0.65,-133.63 0.27,-135.47 208.82 80
11 08/02/2018 10:51:17 0.40,-138.80 -0.29,-135.45 381.23 80




NCC Satellite Simultaneous Nadir Overpasses (SNOs) Prediction Service
